Kelso-Longview, WA

11:32 PM PDT on June 27, 2017 (GMT -0700)
Kelso-Longview

Weather History for KKLS - January, 2014

Change the Weather History Date:

Monday, January 6, 2014

  Actual Average Record
Temperature  
Mean Temperature 33 °F -  
Max Temperature 42 °F 43 °F 55 °F (2002)
Min Temperature 24 °F 34 °F 14 °F (2017)
Degree Days  
Heating Degree Days 32    
Moisture  
Dew Point 27 °F    
Average Humidity 73    
Maximum Humidity 93    
Minimum Humidity 53    
Precipitation  
Precipitation 0.01 in - - ()
Sea Level Pressure  
Sea Level Pressure 30.24 in    
Wind  
Wind Speed - (North)    
Max Wind Speed -    
Max Gust Speed -    
Visibility 8 miles    
Events      
Averages and records for this station are not official NWS values.
T = Trace of Precipitation, MM = Missing Value Source: NWS Daily Summary

Daily Weather History Graph

Daily Weather History Graph

Search for Another Location

Airport or City:

Trip Planner

Search our weather history database for the weather conditions in past years. The results will help you decide how hot, cold, wet, or windy it might be!

Date:

Astronomy

Jan. 06, 2014 Rise Set
Actual Time 7:53 AM PST 4:41 PM PST
Civil Twilight 7:19 AM PST 5:16 PM PST
Nautical Twilight 6:41 AM PST 5:53 PM PST
Astronomical Twilight 6:05 AM PST 6:30 PM PST
Moon 10:50 AM PST (1/6) 11:44 PM PST (1/6)
Length of Visible Light 9h 56m
Length of Day
8h 48m
Waxing Crescent, 36% of the Moon is Illuminated
Jan 6
Waxing Crescent
Jan 7
First Quarter
Jan 15
Full
Jan 23
Last Quarter
Jan 30
New

Hourly Weather History & Observations

Time (PST) Temp. Dew Point Humidity Pressure Visibility Wind Dir Wind Speed Gust Speed Precip Events Conditions
12:15 AM 26.6 °F 23.0 °F 86% 30.31 in 5.0 mi North - - N/A   Clear
12:35 AM 28.4 °F 24.8 °F 86% 30.30 in 7.0 mi North - - N/A   Clear
12:55 AM 26.6 °F 24.8 °F 93% 30.29 in 4.0 mi North - - N/A   Clear
1:15 AM 26.6 °F 24.8 °F 93% 30.29 in 8.0 mi North - - N/A   Mostly Cloudy
1:35 AM 26.6 °F 24.8 °F 93% 30.29 in 8.0 mi North - - N/A   Partly Cloudy
1:55 AM 26.6 °F 24.8 °F 93% 30.29 in 8.0 mi North - - N/A   Clear
2:15 AM 26.6 °F 23.0 °F 86% 30.29 in 7.0 mi North - - N/A   Clear
2:35 AM 26.6 °F 24.8 °F 93% 30.29 in 7.0 mi North - - N/A   Clear
2:55 AM 24.8 °F 21.2 °F 86% 30.29 in 5.0 mi North - - N/A   Partly Cloudy
3:15 AM 26.6 °F 24.8 °F 93% 30.29 in 0.8 mi North - - N/A   Overcast
3:35 AM 26.6 °F 24.8 °F 93% 30.29 in 0.8 mi North - - N/A   Overcast
3:55 AM 26.6 °F 24.8 °F 93% 30.29 in 1.8 mi North - - N/A   Overcast
4:15 AM 26.6 °F 23.0 °F 86% 30.28 in 5.0 mi North - - N/A   Scattered Clouds
4:35 AM 26.6 °F 24.8 °F 93% 30.29 in 2.0 mi North - - N/A   Overcast
4:55 AM 28.4 °F 24.8 °F 86% 30.28 in 4.0 mi North - - N/A   Overcast
5:15 AM 28.4 °F 24.8 °F 86% 30.27 in 0.5 mi North - - N/A   Overcast
5:35 AM 28.4 °F 24.8 °F 86% 30.27 in 1.5 mi North - - N/A   Overcast
5:55 AM 28.4 °F 24.8 °F 86% 30.28 in 5.0 mi North - - N/A   Overcast
6:15 AM 28.4 °F 24.8 °F 86% 30.26 in 3.0 mi North - - N/A   Mostly Cloudy
6:35 AM 28.4 °F 26.6 °F 93% 30.27 in 1.5 mi North - - N/A   Overcast
6:55 AM 28.4 °F 24.8 °F 86% 30.27 in 5.0 mi North - - N/A   Overcast
7:15 AM 28.4 °F 24.8 °F 86% 30.27 in 7.0 mi North - - N/A   Partly Cloudy
7:35 AM 28.4 °F 24.8 °F 86% 30.27 in 9.0 mi North - - N/A   Partly Cloudy
7:55 AM 28.4 °F 24.8 °F 86% 30.27 in 8.0 mi North - - N/A   Clear
8:15 AM 26.6 °F 24.8 °F 93% 30.28 in 9.0 mi North - - N/A   Clear
8:35 AM 28.4 °F 24.8 °F 86% 30.28 in 8.0 mi North - - N/A   Clear
8:55 AM 28.4 °F 24.8 °F 86% 30.28 in 8.0 mi North - - N/A   Clear
9:15 AM 30.2 °F 28.4 °F 93% 30.28 in 10.0 mi North - - N/A   Clear
9:35 AM 33.8 °F 28.4 °F 81% 30.27 in 10.0 mi North - - N/A   Clear
9:55 AM 35.6 °F 28.4 °F 75% 30.27 in 10.0 mi North - - N/A   Clear
10:15 AM 35.6 °F 28.4 °F 75% 30.27 in 10.0 mi North - - N/A   Clear
10:35 AM 37.4 °F 28.4 °F 70% 30.27 in 10.0 mi North - - N/A   Clear
10:55 AM 37.4 °F 28.4 °F 70% 30.27 in 10.0 mi North - - N/A   Clear
11:15 AM 39.2 °F 28.4 °F 65% 30.27 in 10.0 mi North - - N/A   Clear
11:35 AM 39.2 °F 26.6 °F 61% 30.25 in 10.0 mi North - - N/A   Clear
11:55 AM 39.2 °F 26.6 °F 61% 30.22 in 10.0 mi North - - N/A   Clear
12:15 PM 41.0 °F 26.6 °F 57% 30.22 in 10.0 mi North - - N/A   Clear
12:35 PM 41.0 °F 26.6 °F 57% 30.23 in 10.0 mi North - - N/A   Clear
12:55 PM 41.0 °F 26.6 °F 57% 30.22 in 10.0 mi North - - N/A   Clear
1:15 PM 41.0 °F 26.6 °F 57% 30.21 in 10.0 mi North - - N/A   Clear
1:35 PM 41.0 °F 26.6 °F 57% 30.21 in 10.0 mi North - - N/A   Clear
1:55 PM 41.0 °F 26.6 °F 57% 30.21 in 10.0 mi North - - N/A   Clear
2:15 PM 41.0 °F 26.6 °F 57% 30.22 in 10.0 mi North - - N/A   Clear
2:35 PM 42.8 °F 26.6 °F 53% 30.22 in 10.0 mi North - - N/A   Clear
2:55 PM 42.8 °F 26.6 °F 53% 30.23 in 10.0 mi North - - N/A   Clear
3:15 PM 42.8 °F 26.6 °F 53% 30.21 in 10.0 mi North - - N/A   Clear
3:35 PM 42.8 °F 26.6 °F 53% 30.21 in 10.0 mi North - - N/A   Clear
3:55 PM 42.8 °F 26.6 °F 53% 30.21 in 10.0 mi North - - N/A   Clear
4:15 PM 42.8 °F 26.6 °F 53% 30.21 in 10.0 mi North - - N/A   Clear
4:35 PM 42.8 °F 26.6 °F 53% 30.20 in 10.0 mi North - - N/A   Clear
4:55 PM 42.8 °F 26.6 °F 53% 30.21 in 10.0 mi North - - N/A   Clear
5:15 PM 41.0 °F 26.6 °F 57% 30.20 in 10.0 mi North - - N/A   Scattered Clouds
5:35 PM 41.0 °F 26.6 °F 57% 30.21 in 10.0 mi North - - N/A   Overcast
5:55 PM 41.0 °F 26.6 °F 57% 30.21 in 10.0 mi North - - N/A   Overcast
6:15 PM 41.0 °F 26.6 °F 57% 30.21 in 10.0 mi North - - N/A   Overcast
6:35 PM 42.8 °F 26.6 °F 53% 30.21 in 10.0 mi North - - N/A   Overcast
6:55 PM 42.8 °F 26.6 °F 53% 30.22 in 10.0 mi North - - N/A   Overcast
7:15 PM 41.0 °F 28.4 °F 61% 30.21 in 10.0 mi North - - N/A   Overcast
7:35 PM 41.0 °F 28.4 °F 61% 30.21 in 10.0 mi North - - N/A   Overcast
7:55 PM 39.2 °F 28.4 °F 65% 30.21 in 10.0 mi North - - N/A   Overcast
8:15 PM 39.2 °F 30.2 °F 70% 30.22 in 10.0 mi North - - N/A   Overcast
8:35 PM 39.2 °F 30.2 °F 70% 30.21 in 10.0 mi North - - N/A   Overcast
8:55 PM 39.2 °F 30.2 °F 70% 30.21 in 10.0 mi North - - N/A   Overcast
9:15 PM 39.2 °F 30.2 °F 70% 30.20 in 10.0 mi North - - N/A   Overcast
9:35 PM 37.4 °F 32.0 °F 81% 30.21 in 10.0 mi North - - N/A   Overcast
9:55 PM 39.2 °F 32.0 °F 75% 30.21 in 10.0 mi North - - N/A   Overcast
10:15 PM 39.2 °F 32.0 °F 75% 30.21 in 10.0 mi North - - N/A   Overcast
10:35 PM 39.2 °F 32.0 °F 75% 30.21 in 10.0 mi North - - 0.01 in   Overcast
10:55 PM 39.2 °F 30.2 °F 70% 30.21 in 10.0 mi North - - 0.01 in   Overcast
11:15 PM 39.2 °F 30.2 °F 70% 30.21 in 10.0 mi North - - N/A   Overcast
11:35 PM 39.2 °F 30.2 °F 70% 30.21 in 10.0 mi North - - N/A   Overcast
11:55 PM 39.2 °F 30.2 °F 70% 30.21 in 10.0 mi North - - N/A   Overcast